Starlink 5697

operational
NORAD ID: 55589 Int'l Des: 2023-020 Owner: SPXS Country: US Constellation: starlink
LEOCIRCULAR

Über Starlink 5697

Beschreibung wird geladen...

Live-Position

3D-Globus wird geladen...

Nächste Überflüge

Höhenverlauf

Altitude vs Time

uPlot chart will show altitude changes over time

Zweizeiliger Elementsatz

1 55589U 23020W 25304.80841566 .00000072 00000-0 20438-4 0 9991
2 55589 43.0044 344.8249 0001235 274.1571 85.9130 15.02533783149536
Epoch: 31. Okt. 2025 • Age: 19 hours

Aktueller Status

Höhe 559.6 km
Geschwindigkeit 7.58 km/s
Subsatellitenpunkt -6.18°S, 75.12°E
Startdatum 12. Feb. 2023
Alter 2.7 years
Typ internet

Technische Details

Klassifizierung Payload
Masse 305.00 kg
Trockenmasse 290.00 kg
Gesamtmasse 305.00 kg
Länge 0.20 m
Durchmesser 2.80 m
Spannweite 9.00 m
Form Box + pan
Hersteller SPXS
Bus-Typ Starlink
Phasenstatus In Orbit
Besitzer/Staat SPXS/US

Große Konstellationen

Loading constellations...